Location: Unspecified
(48.2082°N, 0.0000°E)
Time: 17:47:54
(UTC+00:00)

Vanguard 1 - Pass Details

Date: 28 June 2019
Orbit: 655 x 3829 km, 34.2° (Epoch: 22 August)

Event Time Altitude Azimuth Distance (km) Brightness Sun altitude
Rises 22:39:15 0° 202° (SSW) 7,815 14.2 -16.1°
Reaches altitude 10° 22:45:58 10° 192° (SSW) 6,914 13.8 -16.5°
Maximum altitude 23:02:56 27° 145° (SE) 5,273 13.2 -17.3°
Drops below altitude 10° 23:16:48 10° 97° (E) 5,681 13.8 -17.8°
Sets 23:21:26 0° 86° (E) 6,263 14.1 -17.9°
